Vorticity
2 5 4 3 5 6 7 2 7 7 6 4 7 7 2 3 5 0 7 5 -2 -3 2 5 11 8 3 4 7 7 1 11 9 5 6 15 16 10 3 6 9 4 1 6 6
4 4 9 6 6 5 5 3 9 2 10 4 6 4 5 5 4 4 -4 3 3 6 4 5 6 -4 8 12 10 3 7 5 7 9 4 11 1 14 7 4 8 6 1 5 6
4 4 1 10 8 6 5 4 6 10 7 1 7 5 6 6 7 9 9 8 6 2 9 10 15 14 3 2 -0 5 6 8 6 5 14 1 7 3 17 6 3 7 6 2 5
3 8 6 4 9 8 4 9 5 4 1 1 5 5 11 9 8 5 4 8 7 9 5 5 2 2 5 3 -2 7 8 6 13 12 11 7 13 2 5 14 8 2 10 6 4
5 9 10 6 5 3 2 3 8 10 7 9 5 9 7 5 7 14 7 4 3 3 6 5 8 13 10 13 11 20 -0 8 13 13 14 14 12 11 2 7 14 0 6 6 5
7 10 8 7 6 9 8 5 2 1 10 6 6 10 8 12 10 -1 3 8 8 6 9 22 27 27 22 28 23 34 33 33 29 28 25 11 12 4 7 9 13 5 2 11 5
6 8 8 6 7 3 2 -3 9 14 9 4 10 10 11 7 -1 7 5 7 25 43 39 29 38 39 40 33 26 13 35 12 38 16 18 12 12 8 6 6 12 9 3 7 7
8 5 9 6 6 8 4 2 6 12 6 5 11 14 0 4 5 3 9 37 38 32 40 32 26 23 18 30 28 19 9 25 0 43 18 2 16 11 9 7 7 9 3 10 8
4 7 6 5 6 4 3 2 9 10 5 8 9 7 2 2 2 13 36 54 43 36 30 26 15 21 21 21 25 14 19 15 15 -2 29 21 13 15 12 12 5 9 2 6 10
7 5 3 6 3 5 11 7 9 8 6 9 4 6 0 2 13 26 53 41 23 19 12 15 26 21 17 20 23 10 8 13 7 25 -3 16 23 -3 21 19 13 3 15 5 8
6 6 6 6 7 2 8 4 6 7 9 11 3 4 1 10 22 46 44 17 12 11 4 6 34 32 8 29 24 13 29 5 17 -7 -2 17 26 20 17 22 27 13 -1 4 12
7 4 2 4 3 7 6 9 7 12 8 1 5 2 10 14 53 46 23 14 7 13 21 30 25 24 12 28 22 22 36 12 6 21 14 12 19 23 18 25 20 11 10 0 11
5 6 8 6 8 6 9 7 8 13 6 7 3 4 6 44 48 26 7 16 15 16 15 9 15 8 17 23 23 20 -1 -5 17 21 31 12 19 10 12 13 20 19 13 10 7
6 12 9 8 5 9 8 7 8 9 4 1 4 16 15 44 33 16 2 9 21 14 8 4 27 9 18 21 29 -23 17 12 15 12 8 -6 18 23 12 6 17 23 7 9 8
6 2 13 12 11 7 7 5 9 5 3 3 4 2 40 57 29 13 3 24 14 3 8 19 13 12 15 27 26 28 6 15 -2 5 -3 21 -1 7 17 17 14 25 31 16 9
4 6 2 7 7 6 7 7 10 7 5 3 4 15 39 44 20 -1 4 8 7 7 10 6 25 14 12 46 23 31 12 14 23 -16 1 15 3 13 11 13 7 14 20 22 12
5 8 7 7 7 6 7 5 10 7 4 3 7 18 37 38 13 1 -3 9 11 22 5 1 19 7 11 30 16 9 17 17 9 6 36 7 7 9 15 9 9 4 19 25 16
3 5 3 7 7 5 6 9 12 6 1 2 13 32 36 53 6 6 6 8 6 5 0 -1 7 18 -8 16 7 -11 9 -6 -5 27 20 12 8 8 15 20 13 7 15 19 23
6 4 9 2 9 9 6 5 9 6 1 6 17 31 33 19 21 9 8 12 3 7 10 14 22 20 23 6 10 14 13 10 -2 25 15 6 14 9 6 5 14 26 2 16 16
2 2 9 6 9 7 4 11 12 4 1 5 18 42 39 30 11 7 15 5 13 3 10 -3 7 5 27 3 7 8 10 15 10 10 2 6 7 7 10 17 10 5 22 13 17
6 7 7 10 10 10 2 9 9 3 2 11 20 34 31 27 9 6 13 12 8 13 3 12 -3 13 20 14 20 9 2 12 6 -5 20 11 12 6 29 13 11 16 14 12 17
8 10 7 12 6 7 8 11 8 3 3 9 26 34 31 26 7 5 6 12 16 11 19 19 5 19 -4 6 20 9 7 18 5 2 -11 16 13 24 14 16 8 19 17 12 13
9 5 7 5 4 6 11 12 6 3 4 10 29 30 31 19 5 1 7 13 14 11 4 11 6 17 19 13 11 6 23 10 12 15 16 10 -7 -2 24 21 17 24 14 11 16
7 9 4 15 6 6 12 10 5 2 6 16 27 29 23 18 19 8 3 1 23 13 10 16 0 5 6 24 16 17 2 18 13 -5 15 6 15 2 16 19 14 13 11 19 12
7 8 10 3 9 8 12 13 4 3 8 20 24 23 24 10 9 15 11 7 3 23 11 12 12 4 -0 2 14 7 1 7 20 -1 -2 -1 15 8 11 19 15 12 17 10 13
9 7 3 11 7 11 9 11 4 3 12 21 25 23 20 19 10 6 13 3 3 6 14 10 13 17 7 5 4 10 13 -1 11 7 11 6 16 8 7 15 12 18 13 13 14
6 8 13 10 6 13 8 11 5 5 15 29 17 14 14 13 18 12 13 17 8 -0 28 8 7 5 18 12 7 22 9 18 8 12 8 8 8 11 10 9 9 9 10 12 11
Height
5807 5804 5800 5796 5793 5790 5788 5785 5782 5779 5775 5771 5767 5764 5760 5757 5753 5749 5746 5743 5737 5732 5728 5725 5726 5722 5718 5720 5720 5720 5723 5731 5738 5740 5742 5745 5745 5748 5749 5756 5758 5764 5771 5777 5778
5802 5799 5796 5792 5789 5786 5782 5780 5776 5772 5768 5764 5760 5756 5751 5747 5743 5738 5733 5729 5723 5717 5714 5708 5704 5700 5700 5702 5700 5701 5709 5720 5723 5725 5727 5729 5732 5737 5735 5746 5750 5755 5761 5769 5772
5798 5795 5791 5788 5784 5780 5776 5773 5768 5764 5760 5755 5751 5745 5740 5735 5731 5726 5719 5713 5707 5701 5696 5690 5685 5678 5680 5677 5681 5681 5691 5701 5703 5709 5710 5711 5720 5724 5727 5731 5743 5747 5752 5758 5764
5794 5790 5786 5783 5779 5775 5771 5766 5762 5757 5752 5746 5741 5735 5730 5724 5716 5710 5706 5699 5687 5679 5674 5668 5663 5656 5658 5658 5657 5652 5673 5679 5683 5687 5691 5697 5705 5708 5714 5719 5734 5737 5743 5749 5755
5790 5786 5782 5778 5774 5769 5764 5760 5755 5750 5743 5736 5729 5723 5717 5710 5703 5692 5686 5677 5668 5656 5645 5639 5634 5628 5629 5631 5632 5629 5655 5651 5659 5666 5673 5678 5687 5696 5699 5706 5720 5727 5732 5740 5746
5785 5782 5778 5773 5768 5763 5758 5752 5746 5740 5732 5725 5717 5711 5703 5695 5686 5677 5664 5648 5636 5626 5615 5606 5602 5596 5596 5603 5605 5613 5620 5627 5635 5643 5651 5659 5670 5678 5688 5694 5707 5712 5721 5728 5735
5780 5776 5772 5767 5763 5757 5750 5744 5736 5729 5721 5713 5705 5697 5687 5678 5668 5654 5639 5620 5601 5589 5581 5575 5572 5570 5571 5577 5585 5589 5595 5606 5611 5624 5635 5642 5653 5661 5671 5678 5693 5699 5708 5716 5723
5773 5769 5766 5761 5756 5750 5743 5735 5728 5719 5710 5701 5692 5683 5672 5660 5646 5628 5612 5591 5573 5562 5556 5555 5554 5554 5557 5561 5567 5575 5582 5587 5601 5608 5619 5622 5638 5650 5657 5664 5676 5686 5693 5705 5711
5767 5762 5759 5754 5749 5742 5735 5727 5718 5709 5698 5689 5680 5670 5657 5640 5621 5600 5580 5567 5554 5549 5546 5544 5543 5544 5548 5550 5554 5563 5571 5578 5589 5598 5606 5609 5621 5636 5643 5651 5662 5673 5680 5693 5702
5759 5755 5751 5747 5741 5735 5727 5719 5710 5700 5688 5679 5668 5656 5639 5622 5601 5578 5560 5551 5547 5544 5542 5539 5536 5537 5540 5542 5548 5559 5566 5573 5580 5591 5596 5602 5612 5627 5631 5640 5652 5663 5670 5680 5692
5753 5749 5744 5738 5732 5726 5719 5712 5704 5695 5676 5669 5657 5640 5623 5607 5579 5563 5552 5548 5544 5541 5538 5536 5533 5534 5536 5537 5544 5553 5561 5568 5577 5584 5589 5597 5610 5622 5621 5630 5639 5654 5661 5669 5680
5748 5742 5736 5730 5723 5716 5708 5698 5690 5681 5670 5658 5644 5627 5609 5590 5573 5555 5549 5546 5543 5540 5536 5535 5534 5533 5534 5533 5538 5547 5554 5565 5571 5576 5584 5592 5604 5610 5615 5623 5632 5644 5653 5661 5671
5740 5735 5729 5721 5714 5706 5699 5690 5679 5671 5660 5648 5632 5615 5597 5577 5562 5554 5550 5545 5542 5539 5536 5534 5534 5533 5534 5533 5537 5545 5553 5562 5570 5574 5580 5590 5596 5601 5608 5616 5621 5633 5644 5650 5662
5732 5727 5721 5714 5708 5699 5690 5680 5671 5660 5648 5636 5621 5603 5588 5571 5560 5555 5551 5547 5543 5541 5538 5536 5535 5534 5533 5534 5536 5543 5552 5560 5567 5572 5577 5584 5591 5597 5604 5610 5616 5624 5636 5645 5652
5726 5720 5712 5705 5699 5691 5683 5672 5661 5652 5638 5628 5611 5591 5573 5562 5558 5557 5552 5548 5544 5542 5540 5537 5535 5534 5532 5534 5536 5546 5552 5558 5563 5570 5574 5581 5587 5594 5599 5606 5613 5619 5628 5636 5643
5720 5713 5706 5698 5691 5684 5675 5665 5654 5645 5632 5619 5601 5588 5574 5562 5560 5558 5553 5550 5547 5544 5541 5538 5536 5535 5535 5534 5539 5545 5552 5560 5563 5566 5573 5579 5587 5590 5597 5604 5608 5613 5618 5626 5636
5713 5706 5699 5691 5685 5677 5668 5659 5648 5637 5626 5614 5600 5584 5569 5563 5560 5558 5556 5552 5549 5547 5543 5540 5539 5538 5537 5539 5544 5549 5554 5557 5562 5565 5567 5576 5583 5589 5593 5598 5604 5609 5612 5618 5626
5705 5699 5692 5685 5678 5670 5661 5652 5642 5631 5619 5606 5592 5574 5566 5563 5559 5557 5556 5553 5551 5548 5546 5544 5543 5542 5541 5545 5547 5549 5554 5558 5561 5565 5566 5575 5580 5585 5590 5594 5600 5604 5606 5609 5617
5700 5693 5685 5679 5671 5663 5656 5646 5635 5626 5616 5601 5584 5571 5563 5558 5558 5556 5555 5554 5552 5550 5549 5547 5545 5545 5545 5546 5549 5551 5555 5559 5563 5566 5570 5574 5579 5582 5586 5590 5594 5598 5602 5604 5611
5692 5687 5679 5672 5664 5657 5648 5638 5629 5619 5607 5595 5582 5570 5561 5558 5556 5555 5554 5554 5552 5550 5549 5549 5548 5546 5547 5549 5551 5553 5556 5560 5564 5568 5570 5572 5575 5578 5582 5585 5588 5593 5596 5599 5605
5685 5679 5672 5665 5657 5650 5641 5633 5623 5614 5603 5591 5577 5565 5560 5558 5555 5554 5554 5553 5552 5550 5550 5549 5550 5550 5549 5549 5551 5555 5557 5560 5563 5567 5568 5570 5574 5576 5579 5581 5584 5587 5591 5595 5601
5678 5672 5665 5658 5652 5644 5636 5627 5618 5608 5598 5585 5573 5562 5557 5556 5554 5553 5553 5552 5551 5550 5550 5549 5550 5550 5550 5550 5551 5555 5558 5560 5563 5565 5568 5571 5574 5574 5576 5577 5580 5583 5586 5591 5597
5670 5664 5659 5652 5644 5637 5629 5621 5613 5603 5593 5580 5569 5560 5556 5554 5554 5552 5552 5552 5551 5550 5550 5550 5551 5551 5552 5553 5554 5556 5557 5560 5562 5565 5567 5570 5572 5572 5573 5574 5577 5580 5583 5588 5593
5662 5657 5651 5645 5639 5631 5623 5615 5607 5598 5587 5576 5566 5559 5556 5552 5551 5551 5551 5551 5550 5549 5549 5550 5551 5552 5553 5553 5555 5556 5557 5559 5562 5565 5567 5568 5570 5571 5572 5572 5574 5577 5581 5585 5590
5655 5650 5645 5638 5632 5625 5618 5610 5602 5593 5584 5573 5563 5557 5555 5553 5551 5549 5550 5550 5551 5549 5548 5549 5550 5552 5552 5553 5554 5556 5557 5559 5562 5564 5566 5567 5568 5570 5571 5572 5574 5576 5580 5584 5588
5647 5643 5638 5632 5626 5619 5611 5604 5597 5588 5580 5570 5561 5556 5553 5551 5549 5548 5548 5549 5549 5549 5548 5548 5550 5550 5551 5553 5554 5555 5556 5559 5560 5563 5564 5566 5567 5568 5570 5571 5573 5576 5579 5583 5586
5640 5636 5631 5625 5619 5613 5607 5599 5592 5584 5576 5568 5560 5555 5552 5549 5546 5545 5546 5547 5548 5548 5547 5548 5549 5550 5550 5551 5553 5554 5555 5556 5558 5560 5562 5564 5566 5567 5569 5571 5573 5576 5578 5581 5585